Find Starlink 2180

NORAD ID: 47762 Int'l Des: 2021-017 Owner: SPXS Country: US Constellation: starlink decayed
LEOCIRCULAR

Re-entered — Sep 10, 2026

Loading 3D Globe...

About Starlink 2180

Starlink 2180 (NORAD 47762) is a starlink constellation satellite (v1.0) launched Mar 4, 2021 by SPXS of US. It re-entered the atmosphere on Sep 10, 2026. with a mass of 260.00 kg.

Altitude History

Loading altitude history...

Two-Line Element Set

1 47762U 21017AS 26253.75930132 .11156620 12531-4 35475-3 0 9990
2 47762 53.1311 20.3575 0008760 294.1366 65.8767 16.44214198306802
Epoch: Sep 10, 2026 • Age: 247 hours

Current Status

Position data unavailable
Launch Date Mar 4, 2021
Age 5.5 years
Decay Date Sep 10, 2026
Type internet

Technical Details

Classification Payload
Mass 260.00 kg
Dry Mass 248.00 kg
Length 0.20 m
Span 9.00 m
Shape ? Box + pan
Manufacturer SPXS
Bus Type Starlink
Phase Status Unknown Transfer Status
Owner/State SPXS/US

Most Searched